TimeAKDT,TemperatureF,Dew PointF,Humidity,Sea Level PressureIn,VisibilityMPH,Wind Direction,Wind SpeedMPH,Gust SpeedMPH,PrecipitationIn,Events,Conditions,WindDirDegrees,DateUTC
12:16 AM,44.6,39.2,81,29.97,4.0,WSW,20.7,28.8,N/A,,Overcast,250,2013-07-09 08:16:00
12:36 AM,44.6,39.2,81,29.96,5.0,WSW,19.6,27.6,N/A,,Overcast,240,2013-07-09 08:36:00
12:56 AM,44.6,39.2,81,29.96,10.0,WSW,15.0,19.6,N/A,,Overcast,240,2013-07-09 08:56:00
1:16 AM,44.6,39.2,81,29.97,10.0,Calm,Calm,-,N/A,,Overcast,0,2013-07-09 09:16:00
1:36 AM,44.6,39.2,81,29.97,6.0,WSW,16.1,25.3,N/A,,Overcast,250,2013-07-09 09:36:00
1:56 AM,44.6,37.4,76,29.98,4.0,WSW,20.7,26.5,N/A,,Overcast,250,2013-07-09 09:56:00
2:16 AM,44.6,37.4,76,29.98,5.0,West,18.4,26.5,N/A,,Overcast,260,2013-07-09 10:16:00
2:36 AM,42.8,37.4,81,29.99,5.0,West,17.3,20.7,N/A,,Overcast,260,2013-07-09 10:36:00
2:56 AM,42.8,37.4,81,30.00,6.0,West,11.5,19.6,N/A,,Overcast,260,2013-07-09 10:56:00
3:16 AM,42.8,37.4,81,30.00,5.0,West,17.3,-,N/A,,Overcast,270,2013-07-09 11:16:00
3:36 AM,42.8,37.4,81,30.02,5.0,West,15.0,20.7,N/A,,Overcast,270,2013-07-09 11:36:00
3:56 AM,42.8,37.4,81,30.02,3.0,West,13.8,-,N/A,,Overcast,260,2013-07-09 11:56:00
4:16 AM,42.8,35.6,76,30.03,10.0,West,17.3,23.0,N/A,,Overcast,270,2013-07-09 12:16:00
4:36 AM,42.8,35.6,76,30.03,10.0,West,16.1,-,N/A,,Overcast,270,2013-07-09 12:36:00
4:56 AM,42.8,37.4,81,30.04,7.0,West,18.4,23.0,N/A,,Overcast,270,2013-07-09 12:56:00
5:16 AM,42.8,35.6,76,30.05,9.0,West,17.3,21.9,N/A,,Overcast,270,2013-07-09 13:16:00
5:36 AM,42.8,35.6,76,30.06,9.0,West,15.0,-,N/A,,Overcast,270,2013-07-09 13:36:00
5:56 AM,41.0,35.6,81,30.06,10.0,West,17.3,-,N/A,,Overcast,270,2013-07-09 13:56:00
6:16 AM,41.0,35.6,81,30.07,10.0,West,15.0,-,N/A,,Overcast,270,2013-07-09 14:16:00
6:36 AM,41.0,35.6,81,30.07,10.0,West,16.1,21.9,N/A,,Overcast,270,2013-07-09 14:36:00
6:56 AM,42.8,35.6,76,30.08,10.0,West,15.0,-,N/A,,Overcast,270,2013-07-09 14:56:00
7:16 AM,42.8,35.6,76,30.09,10.0,West,16.1,-,N/A,,Overcast,270,2013-07-09 15:16:00
7:36 AM,42.8,35.6,76,30.09,10.0,West,12.7,17.3,N/A,,Overcast,270,2013-07-09 15:36:00
7:56 AM,42.8,35.6,76,30.10,10.0,West,15.0,19.6,N/A,,Overcast,270,2013-07-09 15:56:00
8:16 AM,42.8,35.6,76,30.11,10.0,West,13.8,-,N/A,,Overcast,260,2013-07-09 16:16:00
8:36 AM,42.8,35.6,76,30.11,10.0,West,13.8,-,N/A,,Overcast,270,2013-07-09 16:36:00
8:56 AM,42.8,37.4,81,30.12,10.0,West,13.8,-,N/A,,Overcast,260,2013-07-09 16:56:00
9:16 AM,42.8,37.4,81,30.13,10.0,West,13.8,-,N/A,,Overcast,260,2013-07-09 17:16:00
9:36 AM,42.8,37.4,81,30.14,6.0,West,16.1,20.7,N/A,,Overcast,260,2013-07-09 17:36:00
9:56 AM,42.8,37.4,81,30.15,4.0,West,15.0,23.0,N/A,,Overcast,270,2013-07-09 17:56:00
10:16 AM,44.6,39.2,81,30.16,8.0,West,15.0,-,N/A,,Overcast,270,2013-07-09 18:16:00
10:36 AM,44.6,39.2,81,30.16,9.0,West,12.7,18.4,N/A,,Overcast,270,2013-07-09 18:36:00
10:56 AM,44.6,39.2,81,30.17,9.0,West,11.5,-,N/A,,Overcast,270,2013-07-09 18:56:00
11:16 AM,44.6,39.2,81,30.18,10.0,WSW,11.5,-,N/A,,Overcast,250,2013-07-09 19:16:00
11:36 AM,44.6,37.4,76,30.19,10.0,WSW,10.4,-,N/A,,Overcast,250,2013-07-09 19:36:00
11:56 AM,44.6,39.2,81,30.20,7.0,WSW,11.5,-,N/A,,Overcast,240,2013-07-09 19:56:00
12:16 PM,44.6,39.2,81,30.21,7.0,WSW,11.5,-,N/A,,Overcast,250,2013-07-09 20:16:00
12:36 PM,46.4,39.2,76,30.21,10.0,West,13.8,-,N/A,,Overcast,260,2013-07-09 20:36:00
12:56 PM,46.4,39.2,76,30.22,10.0,WSW,11.5,-,N/A,,Overcast,250,2013-07-09 20:56:00
1:16 PM,46.4,37.4,71,30.22,10.0,WSW,11.5,-,N/A,,Overcast,240,2013-07-09 21:16:00
1:36 PM,46.4,39.2,76,30.23,10.0,WSW,11.5,-,N/A,,Overcast,250,2013-07-09 21:36:00
1:56 PM,48.2,39.2,71,30.24,10.0,WSW,10.4,16.1,N/A,,Overcast,250,2013-07-09 21:56:00
2:16 PM,46.4,39.2,76,30.24,10.0,WSW,9.2,-,N/A,,Overcast,250,2013-07-09 22:16:00
2:36 PM,46.4,39.2,76,30.24,10.0,SW,11.5,18.4,N/A,,Overcast,230,2013-07-09 22:36:00
2:56 PM,46.4,39.2,76,30.25,10.0,West,10.4,16.1,N/A,,Overcast,260,2013-07-09 22:56:00
3:16 PM,46.4,39.2,76,30.25,10.0,West,11.5,-,N/A,,Overcast,260,2013-07-09 23:16:00
3:36 PM,46.4,37.4,71,30.25,10.0,West,12.7,-,N/A,,Overcast,270,2013-07-09 23:36:00
3:56 PM,46.4,37.4,71,30.26,10.0,West,11.5,-,N/A,,Overcast,270,2013-07-09 23:56:00
4:16 PM,44.6,37.4,76,30.26,10.0,West,8.1,-,N/A,,Overcast,270,2013-07-10 00:16:00
4:36 PM,46.4,39.2,76,30.26,10.0,West,9.2,-,N/A,,Overcast,270,2013-07-10 00:36:00
4:56 PM,44.6,37.4,76,30.27,10.0,West,5.8,-,N/A,,Overcast,280,2013-07-10 00:56:00
5:16 PM,46.4,37.4,71,30.27,10.0,WSW,5.8,-,N/A,,Overcast,240,2013-07-10 01:16:00
5:36 PM,44.6,37.4,76,30.27,10.0,WNW,3.5,-,N/A,,Overcast,300,2013-07-10 01:36:00
5:56 PM,46.4,37.4,71,30.26,10.0,West,9.2,-,N/A,,Overcast,270,2013-07-10 01:56:00
6:16 PM,46.4,37.4,71,30.27,10.0,West,4.6,-,N/A,,Overcast,260,2013-07-10 02:16:00
6:36 PM,46.4,37.4,71,30.26,10.0,West,5.8,-,N/A,,Overcast,270,2013-07-10 02:36:00
6:56 PM,46.4,37.4,71,30.27,10.0,West,8.1,-,N/A,,Overcast,270,2013-07-10 02:56:00
7:16 PM,44.6,37.4,76,30.27,10.0,West,8.1,-,N/A,,Overcast,260,2013-07-10 03:16:00
7:36 PM,44.6,37.4,76,30.27,10.0,West,6.9,-,N/A,,Overcast,280,2013-07-10 03:36:00
7:56 PM,44.6,37.4,76,30.27,10.0,WSW,5.8,-,N/A,,Overcast,250,2013-07-10 03:56:00
8:16 PM,44.6,37.4,76,30.28,10.0,West,6.9,-,N/A,,Overcast,270,2013-07-10 04:16:00
8:36 PM,44.6,37.4,76,30.28,10.0,West,5.8,-,N/A,,Overcast,260,2013-07-10 04:36:00
8:56 PM,44.6,37.4,76,30.28,10.0,West,5.8,-,N/A,,Overcast,270,2013-07-10 04:56:00
9:16 PM,44.6,37.4,76,30.28,10.0,West,6.9,-,N/A,,Overcast,260,2013-07-10 05:16:00
9:36 PM,42.8,37.4,81,30.28,10.0,WSW,4.6,-,N/A,,Overcast,240,2013-07-10 05:36:00
9:56 PM,42.8,37.4,81,30.28,5.0,West,3.5,-,N/A,,Overcast,270,2013-07-10 05:56:00
10:16 PM,42.8,37.4,81,30.27,8.0,SSW,4.6,-,N/A,,Overcast,210,2013-07-10 06:16:00
10:36 PM,42.8,37.4,81,30.27,4.0,South,3.5,-,N/A,,Overcast,180,2013-07-10 06:36:00
10:56 PM,42.8,37.4,81,30.27,2.5,South,4.6,-,N/A,,Overcast,180,2013-07-10 06:56:00
11:16 PM,42.8,37.4,81,30.27,2.5,South,4.6,-,N/A,,Overcast,180,2013-07-10 07:16:00
11:36 PM,42.8,37.4,81,30.28,1.2,Calm,Calm,-,N/A,,Overcast,0,2013-07-10 07:36:00
11:56 PM,42.8,37.4,81,30.28,1.0,South,3.5,-,N/A,,Overcast,190,2013-07-10 07:56:00